Location: Unspecified
(0.0000°N, 0.0000°E)
Time: 11:59:07
(UTC+00:00)

deb Explorer IX - Visible Passes

Search period start: 23 July 2014 00:00
Search period end: 02 August 2014 00:00
Orbit: 554 x 1223 km, 38.8° (Epoch: 22 July)

Date Brightness Start Highest point End Pass type
(mag) Time Alt. Az. Time Alt. Az. Time Alt. Az.
28 Jul ? 20:41:42 10° N 20:44:00 14° NNE 20:44:00 14° NNE visible
29 Jul ? 20:38:20 10° N 20:41:54 18° NNE 20:41:54 18° NNE visible
30 Jul ? 20:35:22 10° NNW 20:39:52 24° NNE 20:39:52 24° NNE visible
31 Jul ? 20:32:37 10° NNW 20:37:55 32° NNE 20:37:55 32° NNE visible
01 Aug ? 20:30:03 10° NNW 20:36:02 42° N 20:36:02 42° N visible
